Home > Weather > Zagreb > Past weeks

Flag for Croatia Past Weather in Zagreb, Croatia — Yesterday and Last 2 Weeks

Now
73 °F

Passing clouds.


Feels Like: 76 °F
Forecast: 56 / 86 °F
Wind: 3 mph from Southeast

Location: Zagreb / Pleso

Current Time: Aug 28, 2016 at 12:36:19 PM

Latest Report: Aug 28, 2016 at 11:00 AM


Visibility: N/A

Pressure: 30.12 "Hg

Humidity: 69%

Dew Point: 63 °F

Location of ZagrebLocation

Past Weather in Zagreb — Graph

°F

Zagreb Temperature Yesterday

Maximum temperature yesterday: 84 °F (at 2:30 PM)
Minimum temperature yesterday: 57 °F (at 5:30 AM)
Average temperature yesterday: 71 °F

High & Low Weather Summary for the Past Weeks

 TemperatureHumidityPressure
High86 °F (Aug 15, 2:00 PM)100% (Aug 20, 8:30 AM)30.30 "Hg (Aug 20, 8:30 AM)
Low54 °F (Aug 14, 4:30 AM)37% (Aug 14, 3:30 PM)29.83 "Hg (Aug 17, 4:00 AM)
Average69 °F74%30.09 "Hg
* Reported Aug 13 11:00 AM — Aug 28 11:00 AM, Zagreb, Weather by CustomWeather, © 2016

Note: Actual official high and low records may vary slightly from our data, if they occured in-between our weather recording intervals... More about our weather records

Advertising

Zagreb Weather History for the Previous 24 Hours

Scroll right to see more
 ConditionsComfort  
Time TempWeatherWind HumidityBarometerVisibility
11:00 AM
Sun, Aug 28
73 °FPassing clouds.3 mph69%30.12 "HgN/A
10:30 AM72 °FPassing clouds.3 mph73%30.12 "HgN/A
10:00 AM70 °FPassing clouds.3 mph83%30.12 "HgN/A
9:30 AM70 °FPassing clouds.2 mph88%30.12 "Hg5 mi
9:00 AM64 °FPassing clouds.1 mph94%30.12 "Hg4 mi
8:30 AM61 °FFog.1 mph94%30.12 "Hg2 mi
8:00 AM59 °FCool.1 mph100%30.09 "Hg1 mi
7:30 AM57 °FFog.2 mph94%30.09 "Hg1 mi
7:00 AM55 °FFog.2 mph94%30.09 "Hg0 mi
6:30 AM55 °FFog.3 mph94%30.09 "Hg0 mi
6:00 AM55 °FLight fog.1 mph94%30.09 "Hg1 mi
5:30 AM57 °FLight fog.1 mph88%30.09 "Hg2 mi
5:00 AM57 °FFog.1 mph88%30.09 "HgN/A
4:30 AM57 °FFog.3 mph94%30.09 "HgN/A
4:00 AM59 °FFog.3 mph88%30.09 "HgN/A
3:30 AM59 °FFog.2 mph88%30.09 "HgN/A
3:00 AM59 °FFog.2 mph88%30.12 "HgN/A
2:30 AM59 °FFog.3 mph94%30.12 "HgN/A
2:00 AM61 °FClear.3 mph88%30.12 "Hg10 mi
1:30 AM61 °FClear.3 mph88%30.12 "Hg10 mi
1:00 AM63 °FClear.2 mph88%30.12 "Hg10 mi
12:30 AM63 °FClear.2 mph88%30.12 "Hg10 mi
12:00 AM64 °FClear.No wind83%30.12 "Hg10 mi
11:30 PM
Sat, Aug 27
66 °FClear.1 mph83%30.12 "Hg10 mi
11:00 PM66 °FClear.3 mph78%30.12 "Hg10 mi
10:30 PM68 °FClear.2 mph78%30.12 "Hg10 mi
10:00 PM68 °FClear.2 mph73%30.12 "Hg10 mi
9:30 PM70 °FClear.No wind73%30.12 "Hg10 mi
9:00 PM72 °FClear.No wind69%30.12 "Hg10 mi
8:30 PM73 °FSunny.No wind65%30.12 "Hg10 mi
8:00 PM77 °FSunny.No wind54%30.09 "Hg10 mi
7:30 PM79 °FSunny.2 mph48%30.09 "Hg10 mi
7:00 PM81 °FSunny.2 mph48%30.09 "Hg10 mi
6:30 PM81 °FPassing clouds.3 mph48%30.09 "HgN/A
6:00 PM82 °FPassing clouds.6 mph42%30.12 "HgN/A
5:30 PM82 °FPassing clouds.6 mph45%30.12 "HgN/A
5:00 PM84 °FPassing clouds.6 mph43%30.12 "HgN/A
4:30 PM84 °FPassing clouds.7 mph43%30.12 "HgN/A
4:00 PM84 °FPassing clouds.7 mph45%30.12 "HgN/A
3:30 PM84 °FSunny.6 mph43%30.12 "Hg10 mi
3:00 PM84 °FSunny.3 mph45%30.15 "Hg10 mi
2:30 PM84 °FPassing clouds.6 mph48%30.15 "HgN/A
2:00 PM82 °FSunny.6 mph51%30.15 "Hg10 mi
1:30 PM82 °FPassing clouds.7 mph51%30.15 "HgN/A
1:00 PM82 °FPassing clouds.5 mph55%30.15 "HgN/A
12:30 PM81 °FPassing clouds.5 mph54%30.15 "HgN/A
12:00 PM81 °FPassing clouds.2 mph54%30.18 "HgN/A
Weather by CustomWeather, © 2016

See weather overviewHow to use our weather pages